Weather History for KPAH - October, 2012

Change the Weather History Date:

Tuesday, October 30, 2012

  Actual Average Record
Temperature  
Mean Temperature 49 °F 55 °F  
Max Temperature 58 °F 66 °F 84 °F (1950)
Min Temperature 39 °F 43 °F 27 °F (1980)
Degree Days  
Heating Degree Days 16 11  
Month to date heating degree days 260 217  
Since 1 July heating degree days 300 256  
Cooling Degree Days 0 0  
Month to date cooling degree days 25 39  
Year to date cooling degree days 1977 1539  
Moisture  
Dew Point 26 °F    
Average Humidity 45    
Maximum Humidity 64    
Minimum Humidity 25    
Precipitation  
Precipitation 0.00 in 0.12 in 1.29 in (2009)
Month to date precipitation 2.92 3.84  
Year to date precipitation 24.10 40.07  
Snow  
Snow 0.00 in 0.00 in 2.00 in (1993)
Month to date snowfall 0.0 0.1  
Since 1 July snowfall 0.0 0.1  
Since 1 September snowfall 0.0 0.1  
Snow Depth 0.00 in    
Sea Level Pressure  
Sea Level Pressure 29.92 in    
Wind  
Wind Speed 8 mph (WNW)    
Max Wind Speed 23 mph    
Max Gust Speed 35 mph    
Visibility 10 miles    
Events      
T = Trace of Precipitation, MM = Missing Value Source: NWS Daily Summary

Daily Weather History Graph

Daily Weather History Graph

Search for Another Location

Airport or City:

Trip Planner

Search our weather history database for the weather conditions in past years. The results will help you decide how hot, cold, wet, or windy it might be!

Date:

Astronomy

Oct. 30, 2012 Rise Set
Actual Time 7:17 AM CDT 5:59 PM CDT
Civil Twilight 6:50 AM CDT 6:25 PM CDT
Nautical Twilight 6:20 AM CDT 6:56 PM CDT
Astronomical Twilight 5:49 AM CDT 7:26 PM CDT
Moon 6:30 PM CDT (10/30) 8:02 AM CDT (10/30)
Length of Visible Light 11h 35m
Length of Day
10h 41m
Full, 99% of the Moon is Illuminated
Oct 30
Full
Nov 6
Last Quarter
Nov 13
New
Nov 20
First Quarter
Nov 28
Full

Hourly Weather History & Observations

Time (CDT) Temp. Windchill Dew Point Humidity Pressure Visibility Wind Dir Wind Speed Gust Speed Precip Events Conditions
12:53 AM 39.9 °F 35.8 °F 28.0 °F 63% 30.03 in 10.0 mi WNW 5.8 mph - N/A   Clear
1:53 AM 39.9 °F 35.1 °F 28.0 °F 63% 30.01 in 10.0 mi WNW 6.9 mph - N/A   Clear
2:53 AM 39.9 °F 34.5 °F 27.0 °F 60% 29.99 in 10.0 mi WNW 8.1 mph - N/A   Clear
3:53 AM 39.9 °F 35.1 °F 26.1 °F 58% 29.98 in 10.0 mi NW 6.9 mph - N/A   Clear
4:53 AM 39.9 °F 34.5 °F 26.1 °F 58% 29.97 in 10.0 mi NW 8.1 mph - N/A   Clear
5:53 AM 39.9 °F 35.8 °F 26.1 °F 58% 29.96 in 10.0 mi WNW 5.8 mph - N/A   Clear
6:53 AM 39.0 °F 34.0 °F 26.1 °F 60% 29.96 in 10.0 mi WNW 6.9 mph - N/A   Clear
7:53 AM 39.9 °F 34.5 °F 26.1 °F 58% 29.95 in 10.0 mi WNW 8.1 mph - N/A   Clear
8:53 AM 42.1 °F 37.1 °F 27.0 °F 55% 29.95 in 10.0 mi WNW 8.1 mph - N/A   Clear
9:53 AM 46.0 °F 39.9 °F 27.0 °F 47% 29.94 in 10.0 mi NW 13.8 mph 20.7 mph N/A   Clear
10:53 AM 48.9 °F - 26.1 °F 41% 29.93 in 10.0 mi NW 10.4 mph 20.7 mph N/A   Clear
11:53 AM 52.0 °F - 27.0 °F 38% 29.91 in 10.0 mi NW 12.7 mph 25.3 mph N/A   Clear
12:53 PM 54.0 °F - 26.1 °F 34% 29.89 in 10.0 mi NW 11.5 mph 20.7 mph N/A   Clear
1:53 PM 57.0 °F - 27.0 °F 32% 29.86 in 10.0 mi NW 11.5 mph 26.5 mph N/A   Clear
2:53 PM 57.9 °F - 26.1 °F 30% 29.85 in 10.0 mi WNW 15.0 mph 27.6 mph N/A   Clear
3:53 PM 57.9 °F - 23.0 °F 26% 29.84 in 10.0 mi NW 12.7 mph 23.0 mph N/A   Clear
4:53 PM 57.0 °F - 24.1 °F 28% 29.84 in 10.0 mi WNW 12.7 mph 18.4 mph N/A   Clear
5:53 PM 54.0 °F - 23.0 °F 30% 29.85 in 10.0 mi NW 8.1 mph - N/A   Clear
6:53 PM 48.0 °F - 26.1 °F 42% 29.86 in 10.0 mi West 4.6 mph - N/A   Clear
7:53 PM 48.9 °F - 26.1 °F 41% 29.88 in 10.0 mi WNW 5.8 mph - N/A   Clear
8:53 PM 46.0 °F - 27.0 °F 47% 29.89 in 10.0 mi Calm Calm - N/A   Clear
9:53 PM 43.0 °F 40.3 °F 27.0 °F 53% 29.90 in 10.0 mi West 4.6 mph - N/A   Clear
10:53 PM 43.0 °F 39.5 °F 27.0 °F 53% 29.89 in 10.0 mi West 5.8 mph - N/A   Clear
11:53 PM 39.9 °F 35.1 °F 28.0 °F 63% 29.89 in 10.0 mi West 6.9 mph - N/A   Clear